Lamar, CO

7:22 AM MDT on May 26, 2017 (GMT -0600)
Lamar Municipal

Weather History for KLAA - March, 2012

Change the Weather History Date:

Thursday, March 22, 2012

  Actual Average Record
Temperature  
Mean Temperature 49 °F 45 °F  
Max Temperature 56 °F 61 °F 83 °F (2009)
Min Temperature 41 °F 28 °F 8 °F (1955)
Degree Days  
Heating Degree Days 16 20  
Month to date heating degree days 385 527  
Since 1 July heating degree days 4563 4838  
Cooling Degree Days 0 0  
Month to date cooling degree days 0 0  
Year to date cooling degree days 0 0  
Moisture  
Dew Point 41 °F    
Average Humidity 72    
Maximum Humidity 93    
Minimum Humidity 50    
Precipitation  
Precipitation 0.30 in 0.03 in 0.50 in (1924)
Month to date precipitation 0.44 0.62  
Year to date precipitation 0.64  
Snow  
Snow 0.00 in - - ()
Month to date snowfall 0.0  
Snow Depth 0.00 in    
Sea Level Pressure  
Sea Level Pressure 29.84 in    
Wind  
Wind Speed 11 mph (NNE)    
Max Wind Speed 31 mph    
Max Gust Speed 38 mph    
Visibility 8 miles    
Events Rain    
T = Trace of Precipitation, MM = Missing Value Source: NWS Daily Summary

Daily Weather History Graph

Daily Weather History Graph

Search for Another Location

Airport or City:

Trip Planner

Search our weather history database for the weather conditions in past years. The results will help you decide how hot, cold, wet, or windy it might be!

Date:

Astronomy

Mar. 22, 2012 Rise Set
Actual Time 6:50 AM MDT 7:05 PM MDT
Civil Twilight 6:24 AM MDT 7:31 PM MDT
Nautical Twilight 5:53 AM MDT 8:02 PM MDT
Astronomical Twilight 5:21 AM MDT 8:33 PM MDT
Moon 6:31 AM MDT (3/22) 7:30 PM MDT (3/22)
Length of Visible Light 13h 07m
Length of Day
12h 14m
New Moon, 0% of the Moon is Illuminated
Mar 22
New Moon
Mar 30
First Quarter
Apr 6
Full
Apr 13
Last Quarter
Apr 21
New

Hourly Weather History & Observations

Time (MDT) Temp. Windchill Dew Point Humidity Pressure Visibility Wind Dir Wind Speed Gust Speed Precip Events Conditions
12:53 AM 52.0 °F - 34.0 °F 50% 29.67 in 10.0 mi NNW 21.9 mph 28.8 mph N/A   Overcast
1:53 AM 50.0 °F - 39.0 °F 66% 29.65 in 10.0 mi North 24.2 mph 35.7 mph 0.00 in Rain Light Rain
2:53 AM 48.0 °F - 44.1 °F 86% 29.69 in 6.0 mi North 26.5 mph 35.7 mph 0.04 in Rain Rain
3:53 AM 46.9 °F - 44.1 °F 90% 29.66 in 5.0 mi North 26.5 mph 34.5 mph 0.15 in Rain Rain
4:53 AM 46.0 °F 38.3 °F 44.1 °F 93% 29.68 in 6.0 mi North 20.7 mph 29.9 mph 0.02 in Rain Light Rain
5:04 AM 44.6 °F 38.8 °F 42.8 °F 93% 29.78 in 4.0 mi ENE 11.5 mph - 0.03 in Rain Rain
5:07 AM 44.6 °F 38.1 °F 42.8 °F 93% 29.78 in 4.0 mi ENE 13.8 mph - 0.03 in Rain Light Rain
5:14 AM 44.6 °F 38.8 °F 42.8 °F 93% 29.79 in 5.0 mi ENE 11.5 mph - 0.03 in Rain Light Rain
5:50 AM 44.6 °F 38.4 °F 42.8 °F 93% 29.81 in 6.0 mi East 12.7 mph - 0.07 in Rain Light Rain
5:53 AM 44.1 °F 37.7 °F 42.1 °F 93% 29.76 in 6.0 mi East 12.7 mph - 0.07 in Rain Light Rain
6:06 AM 42.8 °F 39.3 °F 42.8 °F 100% 29.82 in 6.0 mi East 5.8 mph - 0.02 in Rain Light Rain
6:25 AM 42.8 °F 40.1 °F 42.8 °F 100% 29.83 in 7.0 mi NE 4.6 mph - 0.02 in Rain Light Rain
6:53 AM 42.1 °F 37.1 °F 39.9 °F 92% 29.80 in 9.0 mi East 8.1 mph - 0.02 in   Overcast
7:02 AM 42.8 °F 36.2 °F 39.2 °F 87% 29.86 in 10.0 mi East 12.7 mph - N/A   Overcast
7:11 AM 41.0 °F 35.8 °F 39.2 °F 93% 29.86 in 8.0 mi East 8.1 mph - N/A   Overcast
7:50 AM 41.0 °F 37.1 °F 39.2 °F 93% 29.89 in 10.0 mi ENE 5.8 mph - 0.00 in   Overcast
7:53 AM 41.0 °F 36.4 °F 39.9 °F 96% 29.86 in 10.0 mi ENE 6.9 mph - 0.00 in   Overcast
8:00 AM 41.0 °F 39.0 °F 39.2 °F 93% 29.88 in 9.0 mi East 3.5 mph - N/A   Overcast
8:26 AM 41.0 °F 37.1 °F 39.2 °F 93% 29.90 in 3.0 mi East 5.8 mph - N/A   Overcast
8:29 AM 41.0 °F 37.1 °F 39.2 °F 93% 29.90 in 2.5 mi East 5.8 mph - N/A   Overcast
8:34 AM 41.0 °F 37.1 °F 39.2 °F 93% 29.89 in 1.2 mi East 5.8 mph - 0.00 in Rain Light Rain
8:53 AM 41.0 °F 38.0 °F 39.9 °F 96% 29.87 in 1.8 mi East 4.6 mph - 0.00 in   Overcast
9:04 AM 41.0 °F 39.0 °F 39.2 °F 93% 29.91 in 2.5 mi East 3.5 mph - N/A   Overcast
9:07 AM 41.0 °F 39.0 °F 39.2 °F 93% 29.91 in 3.0 mi East 3.5 mph - N/A   Overcast
9:22 AM 42.8 °F 40.1 °F 39.2 °F 87% 29.92 in 8.0 mi NNE 4.6 mph - N/A   Overcast
9:39 AM 42.8 °F 39.3 °F 39.2 °F 87% 29.93 in 9.0 mi NE 5.8 mph - N/A   Overcast
9:53 AM 42.1 °F 39.2 °F 39.9 °F 92% 29.91 in 6.0 mi NE 4.6 mph - N/A   Overcast
10:53 AM 45.0 °F 41.8 °F 41.0 °F 86% 29.88 in 10.0 mi NNW 5.8 mph - N/A   Mostly Cloudy
11:38 AM 48.2 °F - 42.8 °F 82% 29.91 in 10.0 mi North 8.1 mph - N/A   Scattered Clouds
11:46 AM 48.2 °F - 42.8 °F 82% 29.91 in 10.0 mi NW 5.8 mph - N/A   Mostly Cloudy
11:53 AM 48.9 °F - 42.1 °F 77% 29.87 in 10.0 mi NNW 9.2 mph - N/A   Mostly Cloudy
12:35 PM 51.8 °F - 41.0 °F 67% 29.90 in 10.0 mi North 8.1 mph 18.4 mph N/A   Mostly Cloudy
12:53 PM 52.0 °F - 39.9 °F 63% 29.84 in 10.0 mi North 11.5 mph 18.4 mph N/A   Scattered Clouds
1:53 PM 55.0 °F - 39.9 °F 57% 29.82 in 10.0 mi North 13.8 mph - N/A   Scattered Clouds
2:53 PM 55.9 °F - 39.9 °F 55% 29.81 in 10.0 mi NNW 10.4 mph - N/A   Scattered Clouds
3:53 PM 54.0 °F - 42.1 °F 64% 29.81 in 10.0 mi NNW 16.1 mph - N/A   Mostly Cloudy
4:53 PM 53.1 °F - 39.0 °F 59% 29.83 in 10.0 mi NNW 11.5 mph - N/A   Overcast
5:53 PM 51.1 °F - 37.9 °F 61% 29.86 in 10.0 mi NNW 12.7 mph - N/A   Overcast
6:53 PM 48.9 °F - 39.0 °F 69% 29.88 in 10.0 mi NW 8.1 mph - N/A   Mostly Cloudy
7:53 PM 48.0 °F - 41.0 °F 77% 29.91 in 10.0 mi WNW 9.2 mph - N/A   Overcast
8:53 PM 46.9 °F - 41.0 °F 80% 29.93 in 10.0 mi West 5.8 mph - N/A   Overcast
9:53 PM 46.9 °F - 41.0 °F 80% 29.94 in 10.0 mi West 6.9 mph - N/A   Overcast
10:53 PM 46.9 °F - 39.9 °F 77% 29.93 in 10.0 mi WNW 10.4 mph - N/A   Overcast
11:53 PM 46.0 °F 44.8 °F 41.0 °F 83% 29.94 in 10.0 mi WNW 3.5 mph - N/A   Overcast